• In Uzbekistan
  • List of Countries
  • For 7 days
  • Water Temperature
  • Weather Map
  • Weather Widgets
  • user-avatar
    Login

    Hourly Weather Skarżysko-Kamienna

    Today, 2 June, Tuesday

    Time Temperature Precipitation Wind Pressure Humidity
    00:00 +8°C° 0.6 mm 2 mps 741 mmHg 90%
    01:00 +8°C° 0.6 mm 2 mps 741 mmHg 94%
    02:00 +8°C° 0.4 mm 2 mps 741 mmHg 94%
    03:00 +8°C° 0.4 mm 2 mps 741 mmHg 95%
    04:00 +7°C° 0.4 mm 2 mps 740 mmHg 95%
    05:00 +8°C° 0.1 mm 3 mps 740 mmHg 91%
    06:00 +10°C° 0.1 mm 3 mps 740 mmHg 87%
    07:00 +11°C° 0.1 mm 4 mps 741 mmHg 82%
    08:00 +12°C° 0 mm 5 mps 740 mmHg 73%
    09:00 +13°C° 0 mm 5 mps 740 mmHg 65%
    10:00 +14°C° 0 mm 6 mps 740 mmHg 56%
    11:00 +15°C° 0 mm 6 mps 739 mmHg 55%
    12:00 +16°C° 0 mm 6 mps 739 mmHg 54%
    13:00 +16°C° 0 mm 6 mps 739 mmHg 52%
    14:00 +16°C° 0.1 mm 6 mps 738 mmHg 55%
    15:00 +16°C° 0.1 mm 6 mps 738 mmHg 58%
    16:00 +15°C° 0.1 mm 5 mps 738 mmHg 60%
    17:00 +14°C° 0.2 mm 4 mps 737 mmHg 66%
    18:00 +13°C° 0.2 mm 4 mps 737 mmHg 72%
    19:00 +12°C° 0.2 mm 3 mps 737 mmHg 78%
    20:00 +11°C° 0.1 mm 3 mps 737 mmHg 82%
    21:00 +10°C° 0.1 mm 2 mps 737 mmHg 86%
    22:00 +9°C° 0.1 mm 2 mps 737 mmHg 89%
    23:00 +8°C° 0 mm 2 mps 736 mmHg 90%

    Tomorrow, 3 June, Wednesday

    Time Temperature Precipitation Wind Pressure Humidity
    00:00 +8°C° 0 mm 2 mps 736 mmHg 92%
    01:00 +7°C° 0 mm 2 mps 736 mmHg 93%
    02:00 +7°C° 0 mm 2 mps 736 mmHg 94%
    03:00 +7°C° 0 mm 2 mps 735 mmHg 95%
    04:00 +7°C° 0 mm 2 mps 735 mmHg 96%
    05:00 +8°C° 0 mm 2 mps 735 mmHg 90%
    06:00 +10°C° 0 mm 3 mps 735 mmHg 84%
    07:00 +12°C° 0 mm 3 mps 735 mmHg 79%
    08:00 +13°C° 0.2 mm 3 mps 734 mmHg 72%
    09:00 +14°C° 0.2 mm 4 mps 734 mmHg 65%
    10:00 +15°C° 0.2 mm 4 mps 734 mmHg 59%
    11:00 +15°C° 0.2 mm 4 mps 734 mmHg 60%
    12:00 +15°C° 0.2 mm 4 mps 734 mmHg 61%
    13:00 +16°C° 0.2 mm 3 mps 733 mmHg 62%
    14:00 +16°C° 0.2 mm 3 mps 733 mmHg 63%
    15:00 +15°C° 0.2 mm 4 mps 733 mmHg 65%
    16:00 +15°C° 0.2 mm 4 mps 732 mmHg 66%
    17:00 +14°C° 0.2 mm 3 mps 732 mmHg 72%
    18:00 +14°C° 0.2 mm 2 mps 732 mmHg 78%
    19:00 +13°C° 0.2 mm 2 mps 732 mmHg 84%
    20:00 +12°C° 0 mm 2 mps 732 mmHg 86%
    21:00 +10°C° 0 mm 2 mps 732 mmHg 89%
    22:00 +10°C° 0 mm 1 mps 732 mmHg 92%
    23:00 +9°C° 0 mm 1 mps 732 mmHg 93%

    Day after tomorrow, 4 June, Thursday

    Time Temperature Precipitation Wind Pressure Humidity
    00:00 +9°C° 0 mm 1 mps 732 mmHg 93%
    01:00 +9°C° 0 mm 1 mps 732 mmHg 94%
    02:00 +9°C° 0 mm 1 mps 732 mmHg 94%
    03:00 +8°C° 0 mm 1 mps 732 mmHg 95%
    04:00 +8°C° 0 mm 1 mps 731 mmHg 95%
    05:00 +10°C° 0 mm 1 mps 731 mmHg 89%
    06:00 +12°C° 0 mm 1 mps 731 mmHg 83%
    07:00 +14°C° 0 mm 1 mps 731 mmHg 76%
    08:00 +16°C° 0 mm 1 mps 731 mmHg 69%
    09:00 +19°C° 0 mm 1 mps 731 mmHg 62%
    10:00 +18°C° 0 mm 0 mps 731 mmHg 55%
    11:00 +21°C° 0 mm 1 mps 730 mmHg 53%
    12:00 +21°C° 0 mm 1 mps 730 mmHg 51%
    13:00 +22°C° 0 mm 1 mps 730 mmHg 49%
    14:00 +21°C° 0 mm 1 mps 730 mmHg 48%
    15:00 +21°C° 0 mm 1 mps 729 mmHg 48%
    16:00 +20°C° 0 mm 2 mps 729 mmHg 48%
    17:00 +19°C° 0 mm 2 mps 729 mmHg 55%
    18:00 +17°C° 0 mm 2 mps 728 mmHg 61%
    19:00 +16°C° 0 mm 2 mps 728 mmHg 67%
    20:00 +15°C° 0 mm 2 mps 728 mmHg 67%
    21:00 +14°C° 0 mm 2 mps 728 mmHg 67%
    22:00 +13°C° 0 mm 3 mps 728 mmHg 67%
    23:00 +12°C° 0 mm 3 mps 728 mmHg 75%

    5 June, Friday

    Time Temperature Precipitation Wind Pressure Humidity
    00:00 +12°C° 0 mm 3 mps 727 mmHg 82%
    01:00 +12°C° 0 mm 3 mps 727 mmHg 90%
    02:00 +12°C° 0 mm 3 mps 726 mmHg 92%
    03:00 +12°C° 0 mm 3 mps 726 mmHg 93%
    04:00 +13°C° 0 mm 3 mps 726 mmHg 95%
    05:00 +14°C° 0 mm 4 mps 726 mmHg 90%
    06:00 +15°C° 0 mm 4 mps 726 mmHg 85%
    07:00 +17°C° 0 mm 4 mps 726 mmHg 80%
    08:00 +18°C° 0 mm 4 mps 726 mmHg 78%
    09:00 +19°C° 0 mm 4 mps 726 mmHg 76%
    10:00 +19°C° 0 mm 4 mps 726 mmHg 75%
    11:00 +20°C° 0.5 mm 4 mps 726 mmHg 74%
    12:00 +21°C° 0.5 mm 5 mps 726 mmHg 73%
    13:00 +22°C° 0.5 mm 5 mps 726 mmHg 72%
    14:00 +22°C° 1.4 mm 5 mps 726 mmHg 74%
    15:00 +22°C° 1.4 mm 5 mps 726 mmHg 77%
    16:00 +22°C° 1.4 mm 5 mps 726 mmHg 79%
    17:00 +20°C° 0.9 mm 4 mps 727 mmHg 82%
    18:00 +19°C° 0.9 mm 4 mps 727 mmHg 86%
    19:00 +18°C° 0.9 mm 4 mps 727 mmHg 89%
    20:00 +17°C° 0.5 mm 4 mps 727 mmHg 91%
    21:00 +16°C° 0.5 mm 3 mps 728 mmHg 94%
    22:00 +14°C° 0.5 mm 3 mps 728 mmHg 96%
    23:00 +13°C° 0.8 mm 4 mps 728 mmHg 96%

    6 June, Saturday

    Time Temperature Precipitation Wind Pressure Humidity
    00:00 +12°C° 0.8 mm 4 mps 728 mmHg 96%
    01:00 +12°C° 0.8 mm 5 mps 729 mmHg 96%
    02:00 +10°C° 0.2 mm 5 mps 729 mmHg 95%
    03:00 +11°C° 0.2 mm 4 mps 730 mmHg 95%
    04:00 +11°C° 0.2 mm 4 mps 730 mmHg 94%
    05:00 +11°C° 0 mm 4 mps 730 mmHg 92%
    06:00 +11°C° 0 mm 4 mps 731 mmHg 89%
    07:00 +12°C° 0 mm 4 mps 731 mmHg 87%
    08:00 +13°C° 0 mm 4 mps 732 mmHg 79%
    09:00 +14°C° 0 mm 4 mps 732 mmHg 72%
    10:00 +17°C° 0 mm 4 mps 733 mmHg 65%
    11:00 +17°C° 0.1 mm 4 mps 733 mmHg 62%
    12:00 +18°C° 0.1 mm 3 mps 733 mmHg 59%
    13:00 +18°C° 0.1 mm 3 mps 733 mmHg 56%
    14:00 +18°C° 0 mm 3 mps 733 mmHg 56%
    15:00 +19°C° 0 mm 3 mps 733 mmHg 55%
    16:00 +19°C° 0 mm 3 mps 733 mmHg 54%
    17:00 +18°C° 0.1 mm 2 mps 734 mmHg 62%
    18:00 +17°C° 0.1 mm 2 mps 734 mmHg 71%
    19:00 +15°C° 0.1 mm 2 mps 734 mmHg 79%
    20:00 +14°C° 0 mm 2 mps 734 mmHg 81%
    21:00 +13°C° 0 mm 1 mps 735 mmHg 84%
    22:00 +12°C° 0 mm 1 mps 735 mmHg 86%
    23:00 +12°C° 0 mm 1 mps 735 mmHg 87%

    7 June, Sunday

    Time Temperature Precipitation Wind Pressure Humidity
    00:00 +10°C° 0 mm 2 mps 735 mmHg 88%
    01:00 +10°C° 0 mm 2 mps 735 mmHg 89%
    02:00 +9°C° 0 mm 2 mps 735 mmHg 89%
    03:00 +9°C° 0 mm 2 mps 735 mmHg 89%
    04:00 +9°C° 0 mm 2 mps 735 mmHg 90%
    05:00 +12°C° 0 mm 2 mps 736 mmHg 84%
    06:00 +14°C° 0 mm 2 mps 736 mmHg 78%
    07:00 +16°C° 0 mm 2 mps 736 mmHg 72%
    08:00 +17°C° 0 mm 2 mps 736 mmHg 66%
    09:00 +18°C° 0 mm 3 mps 736 mmHg 60%
    10:00 +20°C° 0 mm 3 mps 737 mmHg 54%
    11:00 +20°C° 0 mm 3 mps 736 mmHg 54%
    12:00 +21°C° 0 mm 3 mps 736 mmHg 54%
    13:00 +22°C° 0 mm 3 mps 736 mmHg 54%
    14:00 +22°C° 0.1 mm 3 mps 736 mmHg 55%
    15:00 +23°C° 0.1 mm 2 mps 736 mmHg 57%
    16:00 +23°C° 0.1 mm 2 mps 736 mmHg 58%
    17:00 +21°C° 0 mm 2 mps 736 mmHg 65%
    18:00 +20°C° 0 mm 2 mps 737 mmHg 71%
    19:00 +19°C° 0 mm 1 mps 737 mmHg 78%
    20:00 +19°C° 0 mm 1 mps 737 mmHg 80%
    21:00 +18°C° 0 mm 1 mps 737 mmHg 82%
    22:00 +16°C° 0 mm 1 mps 737 mmHg 84%
    23:00 +16°C° 0 mm 1 mps 737 mmHg 86%
    Show more